Regional Weather Roundup
Issued by NWS

Home | Current Version | Previous Version | Graphics & Text | Print | Product List | Glossary Off
Versions: 1 2 3 4 5 6 7 8 9 10 11 12 13 14 15 16 17 18 19 20 21 22 23 24 25 26 27 28 29 30 31 32 33 34 35 36 37 38 39 40 41 42 43 44 45 46 47 48 49 50

000
ASUS43 KOAX 250810
RWRNE

WEATHER ROUNDUP FOR NEBRASKA
NATIONAL WEATHER SERVICE OMAHA NE
300 AM CDT SAT MAR 25 2017

NOTES: SATELLITE DATA IS BEING USED TO AUGMENT CLOUD COVER ABOVE
       12000 FEET.
       "FAIR" INDICATES FEW OR NO CLOUDS BELOW 12,000 FEET WITH NO
       SIGNIFICANT WEATHER AND/OR OBSTRUCTIONS TO VISIBILITY.

  * THESE STATIONS DO NOT REPORT WEATHER SUCH AS RAIN...SNOW OR FOG.

NEZ001>004-019>022-054>056-250900-
NEBRASKA PANHANDLE

CITY           SKY/WX    TMP DP  RH WIND       PRES   REMARKS
SCOTTSBLUFF    CLOUDY    31  25  78 E7        30.07F WCI  24
ALLIANCE       CLOUDY    23  20  88 W7        30.06F WCI  15
CHADRON        CLEAR     41  30  65 SW8       30.04F
KIMBALL        CLEAR     30  29  96 W5        30.09F WCI  25
SIDNEY         CLEAR     26  22  84 NW6       30.08F WCI  19
$$

NEZ057>060-069>072-079>082-250900-
SOUTHWEST NEBRASKA

CITY           SKY/WX    TMP DP  RH WIND       PRES   REMARKS
NORTH PLATTE   CLEAR     34  28  79 CALM      30.06F
IMPERIAL       CLEAR     34  29  82 N9        30.06F WCI  27
LEXINGTON      PTCLDY    38  35  89 NW10      30.05R WCI  31
MCCOOK         MOCLDY    40  38  93 NW10      30.06R WCI  33
OGALLALA       CLEAR     35  29  80 CALM      30.07F
$$

NEZ005>010-023>029-035>040-094-250900-
NORTH CENTRAL NEBRASKA

CITY           SKY/WX    TMP DP  RH WIND       PRES   REMARKS
VALENTINE      CLOUDY    26  22  84 NW3       30.08F
AINSWORTH      CLOUDY    29  28  98 N5        30.08F WCI  23
BROKEN BOW     CLOUDY    36  34  92 N16       30.05R WCI  26
O`NEILL        CLOUDY    37  36  98 N14       30.09S FOG     WCI  28
ORD            CLOUDY    38  35  89 N13       30.04S FOG     WCI  30
THEDFORD       CLEAR     31  28  87 CALM      30.07F
$$

NEZ041-046>049-061>064-073>077-083>087-250900-
SOUTH CENTRAL NEBRASKA

CITY           SKY/WX    TMP DP  RH WIND       PRES   REMARKS
GRAND ISLAND   CLOUDY    38  38 100 N18       30.00F FOG     WCI  28
AURORA         CLOUDY    38  37  97 N21       29.99R FOG     WCI  28
HASTINGS       CLOUDY    39  37  92 N16       29.99S WCI  30
HEBRON         DRIZZLE   41  39  93 N14G22    29.95S
HOLDREGE       CLOUDY    40  38  91 N10       30.01S WCI  34
KEARNEY *      CLOUDY    39  36  87 N15       30.02S WCI  31
YORK           CLOUDY    39  39 100 N21G29    29.97R FOG     WCI  29
$$

NEZ011>018-030>034-042>045-250900-
NORTHEAST NEBRASKA

CITY           SKY/WX    TMP DP  RH WIND       PRES   REMARKS
NORFOLK        CLOUDY    36  35  96 N17       30.01F FOG     WCI  26
ALBION         CLOUDY    38  36  92 N15       30.02F FOG     WCI  29
BLAIR          DRIZZLE   41  39  93 N17       29.93S
FREMONT        CLOUDY    41  40  97 N9        29.96F
TEKAMAH        CLOUDY    42  38  85 N17       29.98S
WAYNE          CLOUDY    37  37  98 N15G21    30.02F FOG     WCI  28
$$

NEZ050>053-065>068-078-088>093-250900-
SOUTHEAST NEBRASKA

CITY           SKY/WX    TMP DP  RH WIND       PRES   REMARKS
LINCOLN        CLOUDY    42  40  92 N21G30    29.94F
OMAHA EPPLEY   CLOUDY    42  37  82 N21G30    29.93F
BEATRICE       CLOUDY    42  40  95 N17G23    29.91S
FALLS CITY     CLOUDY    45  43  93 N12       29.83F
NEBRASKA CITY  CLOUDY    41  41 100 N18       29.86F
PLATTSMOUTH    RAIN      41  38  89 N12G22    29.89F
$$

NEZ044-045-051>053-067-250900-
OMAHA AREA

CITY           SKY/WX    TMP DP  RH WIND       PRES   REMARKS
OMAHA EPPLEY   CLOUDY    42  37  82 N21G30    29.93F
BLAIR          DRIZZLE   41  39  93 N17       29.93S
FREMONT        CLOUDY    41  40  97 N9        29.96F
MILLARD        CLOUDY    43  41  93 N9G18     29.93F
OFFUTT AFB     CLOUDY    41  39  93 N16G24    29.90F
PLATTSMOUTH    RAIN      41  38  89 N12G22    29.89F
WAHOO          CLOUDY    41  39  93 N18G24    29.95F
$$



USA.gov is the U.S. government's official web portal to all federal, state and local government web resources and services.